User: anonymous
Location: Unspecified
(0.0000°N, 0.0000°E)
Time: 16:23:26
(UTC+02:00)
Language:

CZ-4 DEB - Orbit

View from above orbital plane
View from above orbital plane
View from above satellite
View from above satellite

Ground track
Ground track

The orbit data is extracted from the following two-line orbital elements,

1 29508U 06046D   14265.37290134  .00014395  00000-0  79631-3 0  6849
2 29508 097.7042 273.2702 0004442 346.1321 125.0404 15.13965758432018
Epoch (UTC): 22 September 2014 08:56:58
Eccentricity: 0.0004442
inclination: 97.7042°
perigee height: 521 km
apogee height: 527 km
right ascension of ascending node: 273.2702°
argument of perigee: 346.1321°
revolutions per day: 15.13965758
mean anomaly at epoch: 125.0404°
orbit number at epoch: 43201

The dashed part of the orbit path shows where the satellite is in the earth's shadow,  

DLR